EW5670 Weather Reports


Display with metric or nautical units.
time (UTC)temp
F
wind
direction
speed
MPH
gust
MPH
rain 1hr
in
rain 24hr
in
rain mn
in
humidity
%
barometer
mb
20260507132127 63 53 2.0 7.0 0.00 0.00 0.00 43 1015.9
20260507131127 62 165 2.0 6.0 0.00 0.00 0.00 45 1016.1
20260507130128 62 141 2.0 7.0 0.00 0.00 0.00 45 1016.2
20260507124128 63 154 3.0 8.0 0.00 0.00 0.00 44 1016.2
20260507123128 64 84 2.0 7.0 0.00 0.00 0.00 45 1016.2
20260507122128 64 48 1.0 5.0 0.00 0.00 0.00 44 1016.2
20260507121129 63 123 3.0 8.0 0.00 0.00 0.00 46 1016.4
20260507120126 62 234 2.0 7.0 0.00 0.00 0.00 47 1016.5
20260507115126 62 121 1.0 4.0 0.00 0.00 0.00 52 1016.6
20260507113126 61 105 1.0 6.0 0.00 0.00 0.00 58 1016.5
20260507112127 60 34 2.0 6.0 0.00 0.00 0.00 59 1016.5
20260507111125 59 12 1.0 3.0 0.00 0.00 0.00 57 1016.6
20260507110126 58 105 1.0 4.0 0.00 0.00 0.00 60 1017.0
20260507104124 56 229 2.0 7.0 0.00 0.00 0.00 68 1017.2
20260507103122 55 139 2.0 6.0 0.00 0.00 0.00 69 1017.2
20260507102122 55 245 2.0 6.0 0.00 0.00 0.00 70 1017.3
20260507101121 55 178 2.0 6.0 0.00 0.00 0.00 70 1017.2
20260507100120 54 158 1.0 5.0 0.00 0.00 0.00 71 1017.3
20260507095121 54 174 1.0 3.0 0.00 0.00 0.00 72 1017.2
20260507094115 53 166 1.0 3.0 0.00 0.00 0.00 74 1017.2
20260507093116 53 119 1.0 3.0 0.00 0.00 0.00 74 1017.2
20260507091115 51 108 1.0 3.0 0.00 0.00 0.00 77 1017.3
20260507090115 51 55 1.0 4.0 0.00 0.00 0.00 77 1017.2
20260507085114 50 55 1.0 4.0 0.00 0.00 0.00 78 1017.2
20260507083113 50 108 0.0 2.0 0.00 0.00 0.00 80 1017.2
20260507082111 49 172 0.0 2.0 0.00 0.00 0.00 81 1017.2
20260507081111 49 160 0.0 2.0 0.00 0.00 0.00 82 1017.2
20260507080109 48 127 1.0 5.0 0.00 0.00 0.00 84 1017.3
20260507075109 48 53 1.0 3.0 0.00 0.00 0.00 84 1017.2
20260507074111 47 58 1.0 4.0 0.00 0.00 0.00 85 1017.1
20260507073109 47 16 1.0 4.0 0.00 0.00 0.00 85 1017.2
20260507071111 46 55 1.0 4.0 0.00 0.00 0.00 87 1017.1
20260507070109 46 38 1.0 3.0 0.00 0.00 0.00 87 1017.0
20260507065110 45 41 0.0 3.0 0.00 0.00 0.00 88 1017.0
20260507064109 44 13 1.0 5.0 0.00 0.00 0.00 88 1017.0
20260507063109 44 56 1.0 4.0 0.00 0.00 0.00 88 1016.9
20260507062111 43 45 1.0 4.0 0.00 0.00 0.00 88 1017.0
20260507061109 43 8 1.0 2.0 0.00 0.00 0.00 89 1017.0
20260507055109 42 47 1.0 3.0 0.00 0.00 0.00 89 1016.9
20260507054109 42 31 1.0 3.0 0.00 0.00 0.00 89 1016.8
20260507052104 41 24 0.0 3.0 0.00 0.00 0.00 90 1016.7
20260507051103 40 37 0.0 2.0 0.00 0.00 0.00 90 1016.7
20260507045059 40 5 0.0 1.0 0.00 0.00 0.00 90 1016.8
20260507043059 39 27 0.0 1.0 0.00 0.00 0.00 90 1016.8
20260507042058 39 27 0.0 0.0 0.00 0.00 0.00 90 1016.7
20260507040057 40 29 0.0 2.0 0.00 0.00 0.00 89 1016.6
20260507034057 40 58 0.0 2.0 0.00 0.00 0.00 89 1016.6
20260507033056 40 32 0.0 1.0 0.00 0.00 0.00 89 1016.7
20260507032056 40 23 0.0 1.0 0.00 0.00 0.00 89 1016.8
20260507031057 40 22 0.0 1.0 0.00 0.00 0.00 88 1016.8
20260507030054 40 22 0.0 1.0 0.00 0.00 0.00 89 1016.7
20260507023056 41 15 0.0 1.0 0.00 0.00 0.00 88 1016.6
20260507022108 41 15 1.0 3.0 0.00 0.00 0.00 88 1016.6
20260507021055 41 36 0.0 1.0 0.00 0.00 0.00 88 1016.6
20260507020053 41 35 0.0 2.0 0.00 0.00 0.00 88 1016.6
20260507015100 41 44 0.0 2.0 0.00 0.00 0.00 88 1016.7
20260507014052 42 73 1.0 4.0 0.00 0.00 0.00 87 1016.6
20260507010053 42 58 1.0 5.0 0.00 0.00 0.00 87 1016.7
20260507004050 42 25 1.0 4.0 0.00 0.00 0.00 86 1016.8
20260507003051 43 39 1.0 4.0 0.00 0.00 0.00 86 1016.7
20260507002050 43 70 1.0 4.0 0.00 0.00 0.00 86 1016.8
20260507001051 43 34 1.0 2.0 0.00 0.00 0.00 86 1016.8
20260507000050 43 34 1.0 5.0 0.00 0.00 0.00 86 1016.9
20260506235051 43 58 2.0 5.0 0.00 0.00 0.00 87 1016.8
20260506234051 43 32 2.0 5.0 0.00 0.00 0.00 87 1016.9
20260506233050 42 46 1.0 4.0 0.00 0.00 0.00 86 1016.8
20260506232048 42 27 1.0 3.0 0.00 0.00 0.00 86 1016.9
20260506231048 42 30 1.0 3.0 0.00 0.00 0.00 86 1016.9
20260506230047 43 31 0.0 1.0 0.00 0.00 0.00 86 1016.9
20260506225048 43 28 0.0 2.0 0.00 0.00 0.00 85 1016.8
20260506223047 43 31 0.0 2.0 0.00 0.00 0.00 84 1016.9
20260506221045 44 48 1.0 3.0 0.00 0.00 0.00 84 1016.8
20260506220045 44 50 1.0 3.0 0.00 0.00 0.00 83 1016.7
20260506215044 44 321 1.0 5.0 0.00 0.00 0.00 83 1016.5
20260506214045 45 60 1.0 5.0 0.00 0.00 0.00 83 1016.6
20260506213045 45 48 1.0 3.0 0.00 0.00 0.00 82 1016.4
20260506212045 45 52 2.0 6.0 0.00 0.00 0.00 82 1016.3
20260506210043 46 49 1.0 6.0 0.00 0.00 0.00 81 1016.1
20260506204043 47 35 2.0 7.0 0.00 0.00 0.00 79 1015.9
20260506203044 47 18 3.0 7.0 0.00 0.00 0.00 79 1015.7
20260506202042 48 37 2.0 6.0 0.00 0.00 0.00 78 1015.7
20260506201042 48 32 2.0 8.0 0.00 0.00 0.00 76 1015.7
20260506200039 49 57 2.0 5.0 0.00 0.00 0.00 75 1015.3
20260506193035 51 39 2.0 7.0 0.00 0.00 0.00 72 1015.1
20260506192034 51 37 2.0 6.0 0.00 0.00 0.00 70 1015.1
20260506191034 52 37 2.0 6.0 0.00 0.00 0.00 69 1015.1
20260506190035 52 356 3.0 7.0 0.00 0.00 0.00 68 1015.1
20260506185035 52 37 3.0 7.0 0.00 0.00 0.00 67 1015.1
20260506183036 53 6 4.0 10.0 0.00 0.00 0.00 66 1015.0
20260506182034 53 51 5.0 11.0 0.00 0.00 0.00 65 1014.9
20260506181034 54 95 4.0 12.0 0.00 0.00 0.00 63 1014.9
20260506180034 54 56 3.0 7.0 0.00 0.00 0.00 63 1014.8
20260506174033 55 32 4.0 11.0 0.00 0.00 0.00 58 1014.5
20260506173033 56 68 5.0 11.0 0.00 0.00 0.00 56 1014.5
20260506172034 56 18 4.0 9.0 0.00 0.00 0.00 52 1014.5
20260506171036 56 10 3.0 9.0 0.00 0.00 0.00 48 1014.4
20260506164036 56 21 3.0 6.0 0.00 0.00 0.00 49 1014.4
20260506163036 56 36 3.0 8.0 0.00 0.00 0.00 49 1014.5
20260506162034 56 34 3.0 8.0 0.00 0.00 0.00 51 1014.4
20260506161038 57 60 4.0 10.0 0.00 0.00 0.00 50 1014.4
20260506160035 57 105 3.0 10.0 0.00 0.00 0.00 50 1014.3
20260506155035 57 352 3.0 7.0 0.00 0.00 0.00 47 1014.3
20260506154043 57 69 3.0 8.0 0.00 0.00 0.00 48 1014.4
20260506153035 58 4 2.0 6.0 0.00 0.00 0.00 49 1014.3
20260506152035 58 58 1.0 5.0 0.00 0.00 0.00 48 1014.3
20260506150036 58 344 2.0 8.0 0.00 0.00 0.00 49 1014.5
20260506144036 57 321 4.0 11.0 0.00 0.00 0.00 50 1014.5
20260506143037 57 30 4.0 11.0 0.00 0.00 0.00 50 1014.6
20260506135034 57 47 4.0 10.0 0.00 0.00 0.00 51 1015.0